This is the latest recevied weather packets stored in our database for station/object KI4MRC. If no packets are shown the sender has not sent any weather packets the latest 1 day(s).
| Time | Temp. | Humidity | Pressure | Rain* | Wind** | Luminosity | Snow |
|---|---|---|---|---|---|---|---|
| 1777992917 | 26.67° C | 78% | 1015.5 hPa | 0 mm | 1.79 m/s, 107° | 530 W/m² | - |
| 1777992616 | 27.22° C | 77% | 1015.2 hPa | 0 mm | 2.24 m/s, 127° | 343 W/m² | - |
| 1777992313 | 26.11° C | 81% | 1015.3 hPa | 0 mm | 0.89 m/s, 79° | 615 W/m² | - |
| 1777992010 | 26.67° C | 78% | 1015.4 hPa | 0 mm | 0.89 m/s, 118° | 140 W/m² | - |
| 1777991708 | 27.22° C | 77% | 1015.5 hPa | 0 mm | 0.89 m/s, 29° | 227 W/m² | - |
| 1777991405 | 27.78° C | 76% | 1015.4 hPa | 0 mm | 1.34 m/s, 32° | 196 W/m² | - |
| 1777991102 | 27.78° C | 75% | 1015.4 hPa | 0 mm | 0.89 m/s, 109° | 466 W/m² | - |
| 1777990799 | 27.78° C | 76% | 1015.1 hPa | 0 mm | 1.34 m/s, 25° | 164 W/m² | - |
| 1777990496 | 27.78° C | 76% | 1015.1 hPa | 0 mm | 0.89 m/s, 106° | 760 W/m² | - |
| 1777990193 | 27.22° C | 77% | 1015.2 hPa | 0 mm | 1.34 m/s, 111° | 723 W/m² | - |
| 1777989890 | 26.67° C | 80% | 1015.1 hPa | 0 mm | 1.79 m/s, 92° | 662 W/m² | - |
| 1777989586 | 26.67° C | 78% | 1015 hPa | 0 mm | 1.34 m/s, 95° | 154 W/m² | - |
| 1777989283 | 27.78° C | 79% | 1015.2 hPa | 0 mm | 1.79 m/s, 49° | 709 W/m² | - |
| 1777988979 | 27.22° C | 81% | 1014.9 hPa | 0 mm | 1.34 m/s, 49° | 658 W/m² | - |
| 1777988676 | 26.67° C | 82% | 1015 hPa | 0 mm | 1.79 m/s, 36° | 583 W/m² | - |
| 1777988373 | 26.11° C | 85% | 1015 hPa | 0.51 mm | 1.34 m/s, 47° | 511 W/m² | - |
| 1777988071 | 25.56° C | 85% | 1015.2 hPa | 0.51 mm | 1.34 m/s, 131° | 503 W/m² | - |
| 1777987766 | 25.56° C | 87% | 1015.1 hPa | 0 mm | 0.45 m/s, 102° | 370 W/m² | - |
| 1777987463 | 24.44° C | 90% | 1015.1 hPa | 0 mm | 0.45 m/s, 103° | 286 W/m² | - |
| 1777987160 | 24.44° C | 91% | 1015.1 hPa | 0 mm | 0.89 m/s, 97° | 39 W/m² | - |
| 1777986857 | 24.44° C | 91% | 1015.2 hPa | 0 mm | 0.89 m/s, 130° | 45 W/m² | - |
| 1777986555 | 24.44° C | 93% | 1014.8 hPa | 0 mm | 0.45 m/s, 114° | 57 W/m² | - |
| 1777986252 | 24.44° C | 94% | 1014.9 hPa | 0 mm | 0.89 m/s, 111° | 160 W/m² | - |
| 1777985949 | 23.89° C | 96% | 1014.9 hPa | 0 mm | 0.89 m/s, 51° | 172 W/m² | - |
| 1777985647 | 23.89° C | 97% | 1014.7 hPa | 0 mm | 0.89 m/s, 106° | 162 W/m² | - |
* Rain latest hour (hover to see other rain measurements)
** Current wind speed in m/s (hover to see current wind gust speed)